EA1EE Weather Reports


time (UTC)temp
C
wind
direction
speed
KPH
gust
KPH
rain 1hr
cm
rain 24hr
cm
rain mn
cm
humidity
%
barometer
mb
20260506232724 8 23 6.4 12.9 0.00 0.05 0.00 99 1013.5
20260506231803 8 30 6.4 9.7 0.00 0.05 0.00 99 1013.6
20260506230924 8 33 4.8 9.7 0.00 0.05 0.00 99 1013.6
20260506230003 8 30 8.0 12.9 0.00 0.05 0.00 99 1013.6
20260506225403 8 29 8.0 12.9 0.00 0.05 0.00 98 1013.7
20260506224503 8 28 8.0 12.9 0.00 0.05 0.00 98 1013.6
20260506223624 9 25 8.0 11.3 0.00 0.05 0.00 98 1013.9
20260506222703 9 26 6.4 11.3 0.00 0.05 0.00 98 1013.9
20260506221803 9 23 8.0 12.9 0.00 0.05 0.00 98 1014.0
20260506220903 9 28 6.4 14.5 0.00 0.05 0.00 97 1014.1
20260506220004 9 29 6.4 11.3 0.00 0.05 0.00 97 1014.2
20260506215403 9 29 8.0 17.7 0.00 0.05 0.05 97 1014.3
20260506214503 9 32 4.8 12.9 0.00 0.05 0.05 97 1014.2
20260506213603 9 27 6.4 14.5 0.00 0.05 0.05 97 1014.3
20260506212724 9 27 8.0 14.5 0.00 0.05 0.05 96 1014.3
20260506211803 9 32 6.4 12.9 0.00 0.05 0.05 96 1014.4
20260506210903 9 38 4.8 11.3 0.00 0.05 0.05 95 1014.4
20260506210003 9 26 6.4 11.3 0.00 0.05 0.05 95 1014.3
20260506205424 9 25 8.0 12.9 0.00 0.05 0.05 95 1014.3
20260506204503 9 25 8.0 12.9 0.00 0.05 0.05 95 1014.4
20260506203603 9 27 6.4 11.3 0.00 0.05 0.05 94 1014.3
20260506202703 9 23 6.4 12.9 0.00 0.05 0.05 95 1014.3
20260506201803 9 25 8.0 14.5 0.00 0.05 0.05 95 1014.1
20260506200903 9 22 8.0 17.7 0.00 0.05 0.05 95 1014.2
20260506200003 9 21 8.0 16.1 0.00 0.05 0.05 95 1014.2
20260506195403 9 23 9.7 17.7 0.00 0.05 0.05 95 1014.2
20260506194503 9 22 9.7 16.1 0.00 0.05 0.05 95 1014.1
20260506193603 10 23 9.7 19.3 0.00 0.05 0.05 95 1014.2
20260506192724 10 23 6.4 17.7 0.00 0.05 0.05 95 1014.2
20260506191803 10 20 9.7 16.1 0.00 0.05 0.05 95 1014.2
20260506190903 10 24 8.0 16.1 0.00 0.05 0.05 94 1014.2
20260506190003 10 18 6.4 14.5 0.00 0.05 0.05 92 1014.2
20260506185403 10 17 8.0 16.1 0.00 0.05 0.05 91 1014.1
20260506184503 10 14 8.0 16.1 0.00 0.05 0.05 90 1014.0
20260506183624 10 20 8.0 17.7 0.00 0.05 0.05 90 1014.0
20260506182703 10 14 6.4 12.9 0.00 0.05 0.05 90 1014.1
20260506181803 10 14 9.7 20.9 0.00 0.05 0.05 88 1014.2
20260506180903 11 14 6.4 19.3 0.00 0.05 0.05 88 1014.1
20260506180025 10 21 8.0 16.1 0.00 0.05 0.05 89 1014.2
20260506175424 10 19 9.7 22.5 0.00 0.05 0.05 89 1014.2
20260506174503 11 22 8.0 20.9 0.00 0.05 0.05 88 1014.3
20260506173603 11 15 8.0 17.7 0.00 0.05 0.05 86 1014.4
20260506172703 11 23 6.4 17.7 0.00 0.05 0.05 87 1014.5
20260506171803 11 18 8.0 17.7 0.00 0.05 0.05 87 1014.5
20260506170904 11 25 9.7 20.9 0.00 0.05 0.05 87 1014.5
20260506170003 11 21 9.7 17.7 0.00 0.05 0.05 87 1014.6
20260506165403 11 26 9.7 16.1 0.00 0.05 0.05 88 1014.7
20260506164524 11 30 8.0 16.1 0.00 0.05 0.05 89 1014.7
20260506163603 11 19 6.4 14.5 0.00 0.05 0.05 89 1014.7
20260506162703 11 9 8.0 20.9 0.00 0.05 0.05 88 1014.7
20260506161803 11 20 6.4 16.1 0.00 0.05 0.05 87 1014.6
20260506160924 11 11 6.4 12.9 0.00 0.05 0.05 86 1014.6
20260506160003 11 21 6.4 12.9 0.00 0.05 0.05 86 1014.7
20260506155403 12 19 8.0 16.1 0.00 0.05 0.05 84 1014.8
20260506154503 12 18 6.4 19.3 0.00 0.05 0.05 82 1014.7
20260506153603 11 7 6.4 16.1 0.00 0.05 0.05 83 1014.8
20260506152703 11 7 8.0 16.1 0.00 0.05 0.05 84 1014.8
20260506151803 12 22 8.0 14.5 0.00 0.05 0.05 83 1014.9
20260506150903 11 17 8.0 17.7 0.00 0.05 0.05 83 1015.0
20260506150003 11 11 6.4 14.5 0.00 0.05 0.05 84 1015.1
20260506145403 11 24 8.0 14.5 0.00 0.05 0.05 84 1015.2
20260506144503 12 23 6.4 14.5 0.00 0.05 0.05 82 1015.3
20260506143624 12 11 4.8 12.9 0.00 0.05 0.05 83 1015.3
20260506142703 12 18 4.8 11.3 0.00 0.05 0.05 83 1015.4
20260506141803 11 7 4.8 11.3 0.00 0.05 0.05 84 1015.4
20260506140903 11 23 4.8 11.3 0.00 0.05 0.05 85 1015.5
20260506140003 11 15 4.8 14.5 0.00 0.05 0.05 86 1015.5
20260506135403 11 12 3.2 8.0 0.00 0.05 0.05 86 1015.5
20260506134503 11 19 4.8 9.7 0.00 0.05 0.05 86 1015.6
20260506133603 11 17 4.8 11.3 0.00 0.05 0.05 84 1015.5
20260506132703 11 20 4.8 11.3 0.00 0.05 0.05 82 1015.4
20260506131803 11 11 6.4 11.3 0.00 0.05 0.05 83 1015.4
20260506130924 11 19 6.4 12.9 0.00 0.05 0.05 85 1015.4
20260506130003 11 23 6.4 12.9 0.00 0.05 0.05 85 1015.7
20260506125424 11 13 6.4 11.3 0.00 0.05 0.05 85 1015.7